Regional Weather Roundup
Issued by NWS

Home | Current Version | Previous Version | Graphics & Text | Print | Product List | Glossary On
Versions: 1 2 3 4 5 6 7 8 9 10 11 12 13 14 15 16 17 18 19 20 21 22 23 24 25 26 27
000
ASUS45 KCYS 201910
RWRWY

WYOMING REGIONAL WEATHER ROUNDUP
NATIONAL WEATHER SERVICE CHEYENNE WY
100 PM MDT FRI OCT 20 2017

NOTE:  "FAIR" INDICATES FEW OR NO CLOUDS BELOW 12,000 FEET
WITH NO SIGNIFICANT WEATHER AND/OR OBSTRUCTIONS TO VISIBILITY.

WYZ001-202000-
YELLOWSTONE NATIONAL PARK

CITY           SKY/WX    TMP DP  RH WIND       PRES   REMARKS
LK YELLOWSTONE   N/A     36  36 100 VRB7      29.62S WCI  30
W YELLOWSTONE  NOT AVBL

$$
WYZ002>013-054>058-071-098>099-202000-
NORTHERN WYOMING

CITY           SKY/WX    TMP DP  RH WIND       PRES   REMARKS
JACKSON        CLOUDY    44  32  62 SW16G24   29.63R
CODY           PTSUNNY   62  33  33 W14G26    29.41F
GREYBULL       FAIR      71  33  24 SE18      29.35F
WORLAND        FAIR      71  34  25 S14       29.39F
SHERIDAN       FAIR      75  34  22 SW8       29.35F
BUFFALO        FAIR      75  26  16 SW18G28   29.43F
GILLETTE       FAIR      75  34  22 SW30G39   29.39F
HULETT         FAIR      77  32  19 SW21G31   29.40F
NEWCASTLE      FAIR      73  30  20 SW20G25   29.48F

$$
WYZ014>020-022>026-101>103-202000-
CENTRAL WYOMING

CITY           SKY/WX    TMP DP  RH WIND       PRES   REMARKS
BIG PINEY      PTSUNNY   57  25  29 W29G43    29.61F
PINEDALE       CLOUDY    57  23  26 SW18G31   29.60F
DUBOIS         LGT RAIN  48  34  57 NW8G14    29.55R
LANDER         FAIR      67  24  19 SW26G44   29.48F
RIVERTON       FAIR      69  23  17 SW25G33   29.47F
CASPER         FAIR      71  28  20 SW33G46   29.53F
DOUGLAS        FAIR      76  29  17 SW24G33   29.53F

$$
WYZ021-027>030-104>119-202000-
SOUTHERN WYOMING

CITY           SKY/WX    TMP DP  RH WIND       PRES   REMARKS
EVANSTON       PTSUNNY   53  26  35 W28G40    29.68R
KEMMERER       FAIR      57  23  26 W35G49    29.65S
FORT BRIDGER   FAIR      59  21  23 W29G38    29.69F
ROCK SPRINGS   CLOUDY    59  24  26 SW25G33   29.63F
DIXON          FAIR      66  31  26 SW28G36   29.71F
RAWLINS        FAIR      62  30  29 SW37G49   29.65F
SARATOGA       FAIR      63  27  25 SW29G37   29.69F
LARAMIE        FAIR      65  26  23 SW24G32   29.68F
CHEYENNE       FAIR      72  31  22 SW22G29   29.64F
TORRINGTON     FAIR      76  33  21 S3        29.51F
PINE BLUFFS    FAIR      73  28  19 S12G18    29.61F

$$




USA.gov is the U.S. government's official web portal to all federal, state and local government web resources and services.